Rochester, Indiana, United States (46975)
Lat: 41.06N, Lon: 86.22W
Wx Zone: INZ015
Local Info
Past Weather Observations for Today

NOTE: This archive is for the closest National Weather Service station to Rochester. Information may differ from the station used for current weather conditions.

Click here for Long-term Archive

Time Weather Temperature Dewpoint Humidity Pressure Winds Precip Visibility
17:15
Overcast
Fog And Mist
36°F / 2°C 34°F / 1°C 93% 29.8 in
(1009 mb)
E 12.7 mph
(E 20 kph)
- 5SM
16:55
Overcast
Fog And Mist
36°F / 2°C 34°F / 1°C 93% 29.8 in
(1009 mb)
ESE 10.4 mph
(ESE 17 kph)
- 5SM
16:35
Overcast
Fog And Mist
36°F / 2°C 34°F / 1°C 93% 29.8 in
(1009 mb)
ESE 12.7 mph
(ESE 20 kph)
- 4SM
16:15
Overcast
Fog And Mist
36°F / 2°C 34°F / 1°C 93% 29.8 in
(1009 mb)
SE 10.4 mph
(SE 17 kph)
- 4SM
15:55
Overcast
Fog And Mist
36°F / 2°C 34°F / 1°C 93% 29.8 in
(1009 mb)
ESE 9.2 mph
(ESE 15 kph)
- 4SM
15:35
Overcast
Fog And Mist
34°F / 1°C 32°F / 0°C 93% 29.8 in
(1009 mb)
ESE 11.5 mph
(ESE 19 kph)
- 4SM
15:15
Overcast
Light Rain
36°F / 2°C 32°F / 0°C 87% 29.8 in
(1009 mb)
ESE 10.4 mph
(ESE 17 kph)
- 4SM
14:55
Overcast
Drizzle
36°F / 2°C 32°F / 0°C 87% 29.83 in
(1010 mb)
SE 11.5 mph
(SE 19 kph)
- 4SM
14:35
Overcast
Drizzle
36°F / 2°C 32°F / 0°C 87% 29.83 in
(1010 mb)
SE 9.2 mph
(SE 15 kph)
- 5SM
14:15
Overcast
Light Rain
36°F / 2°C 32°F / 0°C 87% 29.83 in
(1010 mb)
ESE 8.1 mph
(ESE 13 kph)
- 5SM
13:55
Mostly Cloudy
Hazy
36°F / 2°C 32°F / 0°C 87% 29.86 in
(1011 mb)
SE 9.2 mph
(SE 15 kph)
- 5SM
13:35
Partly Cloudy
36°F / 2°C 32°F / 0°C 87% 29.89 in
(1012 mb)
SE 6.9 mph
(SE 11 kph)
- 7SM
13:15
Clear
Fog And Mist
34°F / 1°C 32°F / 0°C 93% 29.89 in
(1012 mb)
SE 9.2 mph
(SE 15 kph)
- 5SM
12:55
Clear
Hazy
34°F / 1°C 30°F / -1°C 87% 29.89 in
(1012 mb)
ESE 9.2 mph
(ESE 15 kph)
- 5SM
12:35
Partly Cloudy
Light Rain
34°F / 1°C 30°F / -1°C 87% 29.92 in
(1013 mb)
SE 5.8 mph
(SE 9 kph)
- 5SM
12:15
Mostly Cloudy
Hazy
32°F / 0°C 28°F / -2°C 87% 29.92 in
(1013 mb)
SE 8.1 mph
(SE 13 kph)
- 5SM
11:55
Mostly Cloudy
Fog And Mist
32°F / 0°C 28°F / -2°C 87% 29.95 in
(1014 mb)
SE 8.1 mph
(SE 13 kph)
- 5SM
11:35
Overcast
Fog And Mist
32°F / 0°C 28°F / -2°C 87% 29.95 in
(1014 mb)
SE 4.6 mph
(SE 7 kph)
- 5SM
11:15
Mostly Cloudy
Fog And Mist
32°F / 0°C 28°F / -2°C 87% 29.95 in
(1014 mb)
SE 9.2 mph
(SE 15 kph)
- 5SM
10:55
Mostly Cloudy
Fog And Mist
32°F / 0°C 28°F / -2°C 87% 29.95 in
(1014 mb)
SE 6.9 mph
(SE 11 kph)
- 5SM
10:35
Mostly Cloudy
Fog And Mist
32°F / 0°C 28°F / -2°C 87% 29.95 in
(1014 mb)
ESE 8.1 mph
(ESE 13 kph)
- 4SM
10:15
Partly Cloudy
Fog And Mist
30°F / -1°C 27°F / -3°C 86% 29.98 in
(1015 mb)
ESE 9.2 mph
(ESE 15 kph)
- 4SM
09:55
Mostly Cloudy
Unknown Precip
30°F / -1°C 27°F / -3°C 86% 29.98 in
(1015 mb)
ESE 9.2 mph
(ESE 15 kph)
- 4SM
09:35
Overcast
Fog And Mist
30°F / -1°C 27°F / -3°C 86% 30.01 in
(1016 mb)
SE 9.2 mph
(SE 15 kph)
- 4SM
09:15
Overcast
Fog And Mist
30°F / -1°C 27°F / -3°C 86% 30.01 in
(1016 mb)
SE 6.9 mph
(SE 11 kph)
- 4SM
08:55
Overcast
Fog And Mist
30°F / -1°C 27°F / -3°C 86% 30.01 in
(1016 mb)
SE 6.9 mph
(SE 11 kph)
- 4SM
08:35
Overcast
Fog And Mist
28°F / -2°C 27°F / -3°C 93% 30.01 in
(1016 mb)
ESE 6.9 mph
(ESE 11 kph)
- 4SM
08:15
Overcast
Fog And Mist
28°F / -2°C 27°F / -3°C 93% 30.01 in
(1016 mb)
ESE 6.9 mph
(ESE 11 kph)
- 5SM
07:55
Overcast
Fog And Mist
28°F / -2°C 27°F / -3°C 93% 30.01 in
(1016 mb)
ESE 8.1 mph
(ESE 13 kph)
- 5SM
07:35
Overcast
Fog And Mist
28°F / -2°C 27°F / -3°C 93% 30.01 in
(1016 mb)
ESE 4.6 mph
(ESE 7 kph)
- 5SM
07:15
Mostly Cloudy
Fog And Mist
28°F / -2°C 27°F / -3°C 93% 30.01 in
(1016 mb)
SE 4.6 mph
(SE 7 kph)
- 5SM
06:55
Clear
Fog And Mist
28°F / -2°C 25°F / -4°C 86% 30.01 in
(1016 mb)
ESE 5.8 mph
(ESE 9 kph)
- 5SM
06:35
Clear
Fog And Mist
28°F / -2°C 27°F / -3°C 93% 30.04 in
(1017 mb)
SE 5.8 mph
(SE 9 kph)
- 5SM
06:15
Clear
Fog And Mist
28°F / -2°C 27°F / -3°C 93% 30.01 in
(1016 mb)
SE 4.6 mph
(SE 7 kph)
- 5SM
05:55
Clear
Fog And Mist
28°F / -2°C 27°F / -3°C 93% 30.01 in
(1016 mb)
ESE 4.6 mph
(ESE 7 kph)
- 5SM
05:35
Clear
Fog And Mist
28°F / -2°C 27°F / -3°C 93% 30.04 in
(1017 mb)
ESE 4.6 mph
(ESE 7 kph)
- 5SM
05:15
Clear
Fog And Mist
28°F / -2°C 27°F / -3°C 93% 30.04 in
(1017 mb)
SE 4.6 mph
(SE 7 kph)
- 5SM
04:55
Clear
Fog And Mist
28°F / -2°C 27°F / -3°C 93% 30.04 in
(1017 mb)
SE 4.6 mph
(SE 7 kph)
- 5SM
04:35
Clear
Fog And Mist
28°F / -2°C 27°F / -3°C 93% 30.04 in
(1017 mb)
SE 5.8 mph
(SE 9 kph)
- 5SM
04:15
Clear
Fog And Mist
28°F / -2°C 27°F / -3°C 93% 30.04 in
(1017 mb)
SE 5.8 mph
(SE 9 kph)
- 5SM
03:55
Clear
Fog And Mist
28°F / -2°C 25°F / -4°C 86% 30.04 in
(1017 mb)
SE 4.6 mph
(SE 7 kph)
- 5SM
03:35
Clear
Fog And Mist
28°F / -2°C 25°F / -4°C 86% 30.04 in
(1017 mb)
SE 4.6 mph
(SE 7 kph)
- 5SM
03:15
Clear
Fog And Mist
28°F / -2°C 25°F / -4°C 86% 30.06 in
(1018 mb)
SE 3.5 mph
(SE 6 kph)
- 5SM
02:55
Clear
Fog And Mist
28°F / -2°C 25°F / -4°C 86% 30.06 in
(1018 mb)
SE 6.9 mph
(SE 11 kph)
- 5SM
02:35
Clear
Fog And Mist
28°F / -2°C 27°F / -3°C 93% 30.06 in
(1018 mb)
SE 4.6 mph
(SE 7 kph)
- 5SM
02:15
Clear
Fog And Mist
28°F / -2°C 27°F / -3°C 93% 30.06 in
(1018 mb)
SE 5.8 mph
(SE 9 kph)
- 5SM
01:55
Clear
Fog And Mist
28°F / -2°C 27°F / -3°C 93% 30.06 in
(1018 mb)
SE 5.8 mph
(SE 9 kph)
- 5SM
01:35
Clear
Fog And Mist
28°F / -2°C 27°F / -3°C 93% 30.06 in
(1018 mb)
SE 4.6 mph
(SE 7 kph)
- 5SM
01:15
Clear
30°F / -1°C 27°F / -3°C 86% 30.09 in
(1019 mb)
SE 4.6 mph
(SE 7 kph)
- 7SM
00:55
Clear
Fog And Mist
30°F / -1°C 27°F / -3°C 86% 30.09 in
(1019 mb)
SE 4.6 mph
(SE 7 kph)
- 5SM
00:35
Clear
Fog And Mist
28°F / -2°C 27°F / -3°C 93% 30.09 in
(1019 mb)
SE 5.8 mph
(SE 9 kph)
- 5SM
00:15
Clear
Fog And Mist
28°F / -2°C 27°F / -3°C 93% 30.09 in
(1019 mb)
SE 4.6 mph
(SE 7 kph)
- 5SM
Time Weather Temperature Dewpoint Humidity Pressure Winds Precip Visibility


Weather for websites

WeatherForYou.com, LLC is not responsible for any damages or problems caused by this service. Current weather conditions are obtained from the closest station including government and personal stations which may have varying degrees of accuracy. Weather forecasts are derived from the NOAA NDFD. Like all things, this site belongs to Jesus Christ... He just trusts me to maintain it. If you have any questions or comments email webmaster@weatherforyou.com

Copyright © 2014, WeatherForYou.com LLC. All rights reserved.